Dallas/Ft Worth, TX

2:39 AM CDT on October 19, 2017 (GMT -0500)
Dallas-Fort Worth International

Weather History for KDFW - April, 2013

Change the Weather History Date:

Wednesday, April 17, 2013

  Actual Average Record
Temperature  
Mean Temperature 78 °F 66 °F  
Max Temperature 84 °F 77 °F 101 °F (2006)
Min Temperature 72 °F 55 °F 35 °F (1921)
Degree Days  
Heating Degree Days 0 2  
Month to date heating degree days 78 64  
Since 1 July heating degree days 1947 2257  
Cooling Degree Days 13 3  
Month to date cooling degree days 62 43  
Year to date cooling degree days 95 82  
Growing Degree Days 28 (Base 50)    
Moisture  
Dew Point 67 °F    
Average Humidity 70    
Maximum Humidity 87    
Minimum Humidity 53    
Precipitation  
Precipitation T in 0.10 in 1.60 in (1908)
Month to date precipitation 1.11 1.50  
Year to date precipitation 9.12 9.78  
Snow  
Snow 0.00 in 0.00 in 0.00 in ()
Month to date snowfall 0.0 0.0  
Since 1 July snowfall 0.8 1.6  
Snow Depth 0.00 in    
Sea Level Pressure  
Sea Level Pressure 29.77 in    
Wind  
Wind Speed 19 mph (SSE)    
Max Wind Speed 31 mph    
Max Gust Speed 41 mph    
Visibility 9 miles    
Events      
T = Trace of Precipitation, MM = Missing Value Source: NWS Daily Summary

Daily Weather History Graph

Daily Weather History Graph

Search for Another Location

Airport or City:

Trip Planner

Search our weather history database for the weather conditions in past years. The results will help you decide how hot, cold, wet, or windy it might be!

Date:

Astronomy

Apr. 17, 2013 Rise Set
Actual Time 6:55 AM CDT 8:00 PM CDT
Civil Twilight 6:30 AM CDT 8:25 PM CDT
Nautical Twilight 6:00 AM CDT 8:55 PM CDT
Astronomical Twilight 5:28 AM CDT 9:27 PM CDT
Moon 12:16 PM CDT (4/17) 1:32 AM CDT (4/17)
Length of Visible Light 13h 55m
Length of Day
13h 04m
Waxing Crescent, 42% of the Moon is Illuminated
Apr 17
Waxing Crescent
Apr 18
First Quarter
Apr 25
Full
May 2
Last Quarter
May 9
New

Hourly Weather History & Observations

Time (CDT) Temp. Heat Index Dew Point Humidity Pressure Visibility Wind Dir Wind Speed Gust Speed Precip Events Conditions
12:17 AM 73.9 °F - 66.9 °F 79% 29.86 in 10.0 mi SSE 18.4 mph - N/A   Mostly Cloudy
12:53 AM 73.9 °F - 66.9 °F 79% 29.85 in 10.0 mi SSE 13.8 mph 25.3 mph N/A   Mostly Cloudy
1:08 AM 73.9 °F - 66.9 °F 79% 29.88 in 10.0 mi SSE 15.0 mph 21.9 mph N/A   Mostly Cloudy
1:53 AM 73.0 °F - 66.9 °F 81% 29.85 in 10.0 mi SSE 13.8 mph - N/A   Mostly Cloudy
2:53 AM 73.0 °F - 66.9 °F 81% 29.83 in 7.0 mi SSE 17.3 mph 23.0 mph N/A   Overcast
3:53 AM 73.0 °F - 68.0 °F 84% 29.82 in 8.0 mi SSE 13.8 mph - N/A   Overcast
4:35 AM 72.0 °F - 69.1 °F 91% 29.85 in 6.0 mi SSE 13.8 mph - 0.00 in   Light Drizzle
4:53 AM 73.0 °F - 69.1 °F 87% 29.83 in 7.0 mi SSE 15.0 mph - 0.00 in   Overcast
5:26 AM 73.9 °F - 69.1 °F 85% 29.84 in 7.0 mi SSE 17.3 mph - N/A   Overcast
5:48 AM 73.4 °F - 69.8 °F 88% 29.83 in 7.0 mi SSE 17.3 mph - N/A   Overcast
5:53 AM 73.9 °F - 69.1 °F 85% 29.81 in 6.0 mi SSE 18.4 mph - N/A   Haze
6:32 AM 73.0 °F - 69.1 °F 87% 29.84 in 7.0 mi SSE 19.6 mph 24.2 mph 0.00 in   Light Drizzle
6:53 AM 73.0 °F - 69.1 °F 87% 29.82 in 7.0 mi SSE 18.4 mph - 0.00 in   Overcast
7:11 AM 73.0 °F - 69.1 °F 87% 29.85 in 6.0 mi SSE 18.4 mph 24.2 mph N/A   Overcast
7:53 AM 73.9 °F - 68.0 °F 82% 29.83 in 7.0 mi SSE 20.7 mph 27.6 mph N/A   Mostly Cloudy
8:17 AM 73.9 °F - 66.9 °F 79% 29.85 in 7.0 mi SSE 20.7 mph 31.1 mph N/A   Mostly Cloudy
8:53 AM 75.2 °F - 66.2 °F 73% 29.84 in 10.0 mi SSE 19.6 mph 33.4 mph N/A   Mostly Cloudy
9:12 AM 75.0 °F - 66.9 °F 76% 29.85 in 10.0 mi SSE 18.4 mph 28.8 mph N/A   Overcast
9:53 AM 75.9 °F - 66.0 °F 71% 29.82 in 10.0 mi South 19.6 mph 33.4 mph N/A   Mostly Cloudy
10:12 AM 75.9 °F - 66.0 °F 71% 29.84 in 10.0 mi SSE 23.0 mph 29.9 mph N/A   Overcast
10:53 AM 77.0 °F - 66.0 °F 69% 29.81 in 10.0 mi South 21.9 mph 29.9 mph N/A   Mostly Cloudy
11:09 AM 78.1 °F - 66.0 °F 66% 29.82 in 10.0 mi SSE 23.0 mph 29.9 mph N/A   Mostly Cloudy
11:53 AM 80.1 °F 82.1 °F 66.0 °F 62% 29.78 in 10.0 mi South 24.2 mph 33.4 mph N/A   Mostly Cloudy
12:53 PM 82.0 °F 84.1 °F 66.0 °F 58% 29.75 in 10.0 mi South 25.3 mph 34.5 mph N/A   Scattered Clouds
1:53 PM 84.2 °F 86.3 °F 66.0 °F 54% 29.75 in 10.0 mi SSE 26.5 mph 32.2 mph N/A   Mostly Cloudy
2:53 PM 84.0 °F 86.3 °F 66.0 °F 55% 29.70 in 10.0 mi SSE 26.5 mph 32.2 mph N/A   Mostly Cloudy
3:53 PM 84.2 °F 86.3 °F 65.7 °F 54% 29.70 in 10.0 mi SSE 26.5 mph 32.2 mph N/A   Mostly Cloudy
4:53 PM 82.0 °F 83.8 °F 64.9 °F 56% 29.66 in 10.0 mi South 16.1 mph 27.6 mph N/A   Overcast
5:53 PM 82.0 °F 83.8 °F 64.9 °F 56% 29.64 in 10.0 mi SSE 20.7 mph 29.9 mph N/A   Mostly Cloudy
6:53 PM 81.0 °F 82.7 °F 64.9 °F 58% 29.62 in 10.0 mi SSE 31.1 mph 41.4 mph N/A   Overcast
7:53 PM 80.1 °F 81.9 °F 64.9 °F 60% 29.62 in 10.0 mi SSE 21.9 mph 28.8 mph N/A   Overcast
8:53 PM 78.1 °F - 64.9 °F 64% 29.59 in 10.0 mi SSE 21.9 mph 32.2 mph N/A   Mostly Cloudy
9:31 PM 78.1 °F - 66.9 °F 68% 29.62 in 10.0 mi SSE 21.9 mph 34.5 mph N/A   Mostly Cloudy
9:53 PM 78.1 °F - 68.0 °F 71% 29.61 in 10.0 mi SSE 26.5 mph 36.8 mph N/A   Mostly Cloudy
10:53 PM 77.0 °F - 69.1 °F 76% 29.60 in 10.0 mi South 25.3 mph 34.5 mph N/A   Overcast
11:53 PM 77.0 °F - 69.1 °F 76% 29.60 in 10.0 mi South 21.9 mph 31.1 mph N/A   Overcast